CW2014 Weather Reports


time (UTC)temp
C
wind
direction
speed
KPH
gust
KPH
rain 1hr
cm
rain 24hr
cm
rain mn
cm
humidity
%
barometer
mb
20260902042531 32 158 1.6 4.8 0.00 0.00 0.00 47 1010.8
20260902042025 32 158 0.0 4.8 0.00 0.00 0.00 46 1010.8
20260902041544 32 158 0.0 1.6 0.00 0.00 0.00 46 1010.8
20260902041024 32 0 0.0 3.2 0.00 0.00 0.00 46 1010.7
20260902040523 32 0 0.0 3.2 0.00 0.00 0.00 45 1010.7
20260902040058 32 158 0.0 3.2 0.00 0.00 0.00 45 1010.6
20260902035524 32 158 0.0 3.2 0.00 0.00 0.00 44 1010.4
20260902035023 32 158 0.0 3.2 0.00 0.00 0.00 44 1010.4
20260902034549 32 158 0.0 3.2 0.00 0.00 0.00 44 1010.4
20260902034025 32 158 1.6 3.2 0.00 0.00 0.00 44 1010.3
20260902033524 32 158 0.0 3.2 0.00 0.00 0.00 43 1010.2
20260902033051 33 0 1.6 3.2 0.00 0.00 0.00 43 1010.0
20260902032523 33 219 0.0 3.2 0.00 0.00 0.00 42 1009.9
20260902032025 33 219 0.0 3.2 0.00 0.00 0.00 41 1009.8
20260902031555 33 0 0.0 3.2 0.00 0.00 0.00 41 1009.8
20260902031029 33 219 0.0 3.2 0.00 0.00 0.00 40 1009.7
20260902030525 33 219 0.0 3.2 0.00 0.00 0.00 40 1009.6
20260902030043 33 219 0.0 1.6 0.00 0.00 0.00 39 1009.6
20260902025526 33 0 0.0 1.6 0.00 0.00 0.00 39 1009.5
20260902025026 33 0 0.0 1.6 0.00 0.00 0.00 39 1009.6
20260902024556 33 221 0.0 1.6 0.00 0.00 0.00 39 1009.6
20260902024023 34 0 0.0 0.0 0.00 0.00 0.00 39 1009.4
20260902023523 34 0 0.0 3.2 0.00 0.00 0.00 39 1009.5
20260902023046 34 0 0.0 3.2 0.00 0.00 0.00 38 1009.4
20260902022525 34 0 0.0 3.2 0.00 0.00 0.00 38 1009.4
20260902022024 34 220 0.0 1.6 0.00 0.00 0.00 38 1009.3
20260902021558 35 220 0.0 3.2 0.00 0.00 0.00 37 1009.2
20260902021025 35 0 0.0 3.2 0.00 0.00 0.00 37 1009.2
20260902020526 35 217 0.0 3.2 0.00 0.00 0.00 37 1009.2
20260902020049 35 240 0.0 3.2 0.00 0.00 0.00 36 1009.3
20260902015524 35 0 0.0 4.8 0.00 0.00 0.00 36 1009.1
20260902015024 35 0 0.0 4.8 0.00 0.00 0.00 36 1009.1
20260902014550 35 315 1.6 4.8 0.00 0.00 0.00 36 1009.1
20260902014024 35 0 0.0 4.8 0.00 0.00 0.00 36 1009.1
20260902013523 35 314 0.0 4.8 0.00 0.00 0.00 36 1009.1
20260902013049 35 0 1.6 6.4 0.00 0.00 0.00 36 1009.1
20260902012524 35 0 1.6 8.0 0.00 0.00 0.00 36 1009.2
20260902012025 35 306 1.6 8.0 0.00 0.00 0.00 36 1009.3
20260902011549 35 308 1.6 8.0 0.00 0.00 0.00 36 1009.4
20260902011029 35 0 3.2 8.0 0.00 0.00 0.00 35 1009.4
20260902010525 36 286 3.2 9.7 0.00 0.00 0.00 35 1009.5
20260902010047 36 307 3.2 14.5 0.00 0.00 0.00 35 1009.6
20260902005526 36 300 4.8 14.5 0.00 0.00 0.00 35 1009.4
20260902005025 36 246 1.6 9.7 0.00 0.00 0.00 35 1009.5
20260902004547 36 331 0.0 4.8 0.00 0.00 0.00 34 1009.5
20260902004024 36 5 0.0 8.0 0.00 0.00 0.00 34 1009.6
20260902003525 36 63 1.6 11.3 0.00 0.00 0.00 34 1009.7
20260902003054 36 330 3.2 12.9 0.00 0.00 0.00 35 1009.7
20260902002525 36 297 3.2 12.9 0.00 0.00 0.00 35 1009.7
20260902002027 36 325 3.2 12.9 0.00 0.00 0.00 34 1009.8
20260902001554 36 250 3.2 11.3 0.00 0.00 0.00 35 1009.7
20260902001026 37 263 4.8 11.3 0.00 0.00 0.00 35 1009.8
20260902000527 36 296 1.6 14.5 0.00 0.00 0.00 36 1009.8
20260902000047 36 302 4.8 14.5 0.00 0.00 0.00 36 1009.7
20260901235525 36 235 6.4 14.5 0.00 0.00 0.00 36 1009.8
20260901235025 36 333 1.6 9.7 0.00 0.00 0.00 37 1009.8
20260901234548 36 0 1.6 14.5 0.00 0.00 0.00 37 1009.8
20260901234028 37 264 4.8 16.1 0.00 0.00 0.00 37 1009.9
20260901233524 37 271 4.8 16.1 0.00 0.00 0.00 36 1010.0
20260901233053 37 211 6.4 16.1 0.00 0.00 0.00 36 1009.9
20260901232528 36 279 4.8 14.5 0.00 0.00 0.00 35 1010.0
20260901232027 37 315 4.8 12.9 0.00 0.00 0.00 35 1010.0
20260901231550 37 0 0.0 12.9 0.00 0.00 0.00 35 1010.1
20260901231024 37 297 3.2 12.9 0.00 0.00 0.00 35 1010.1
20260901230526 37 192 3.2 9.7 0.00 0.00 0.00 36 1010.2
20260901225524 37 302 1.6 11.3 0.00 0.00 0.00 37 1010.2
20260901225025 37 249 1.6 6.4 0.00 0.00 0.00 36 1010.2
20260901224548 37 275 1.6 11.3 0.00 0.00 0.00 37 1010.3
20260901224029 37 232 3.2 11.3 0.00 0.00 0.00 38 1010.3
20260901223524 37 0 3.2 11.3 0.00 0.00 0.00 37 1010.4
20260901223102 37 302 1.6 9.7 0.00 0.00 0.00 38 1010.4
20260901222522 37 173 1.6 11.3 0.00 0.00 0.00 37 1010.5
20260901222024 37 182 0.0 11.3 0.00 0.00 0.00 38 1010.5
20260901221547 37 157 3.2 14.5 0.00 0.00 0.00 37 1010.6
20260901221026 37 205 1.6 14.5 0.00 0.00 0.00 38 1010.7
20260901220530 37 215 4.8 16.1 0.00 0.00 0.00 38 1010.7
20260901220126 37 250 3.2 16.1 0.00 0.00 0.00 38 1010.7
20260901215524 37 155 1.6 11.3 0.00 0.00 0.00 39 1010.8
20260901215027 37 180 3.2 11.3 0.00 0.00 0.00 39 1010.9
20260901214554 37 167 3.2 12.9 0.00 0.00 0.00 38 1011.1
20260901214024 37 0 3.2 16.1 0.00 0.00 0.00 39 1011.1
20260901213525 37 0 3.2 16.1 0.00 0.00 0.00 39 1011.2
20260901213052 36 213 6.4 14.5 0.00 0.00 0.00 40 1011.3
20260901212524 36 156 1.6 14.5 0.00 0.00 0.00 39 1011.3
20260901212025 36 104 3.2 16.1 0.00 0.00 0.00 40 1011.4
20260901211548 36 155 3.2 16.1 0.00 0.00 0.00 40 1011.6
20260901211023 36 105 3.2 16.1 0.00 0.00 0.00 40 1011.6
20260901210524 36 146 3.2 16.1 0.00 0.00 0.00 41 1011.7
20260901210048 36 162 3.2 14.5 0.00 0.00 0.00 40 1011.8
20260901205524 36 0 3.2 17.7 0.00 0.00 0.00 40 1012.0
20260901205025 36 304 4.8 17.7 0.00 0.00 0.00 40 1012.0
20260901204551 36 0 1.6 16.1 0.00 0.00 0.00 41 1012.1
20260901204026 36 238 3.2 17.7 0.00 0.00 0.00 41 1012.1
20260901203526 36 157 6.4 17.7 0.00 0.00 0.00 41 1012.2
20260901203053 36 286 3.2 12.9 0.00 0.00 0.00 40 1012.3
20260901202526 36 346 3.2 11.3 0.00 0.00 0.00 42 1012.4
20260901202026 36 0 1.6 12.9 0.00 0.00 0.00 43 1012.4
20260901201553 35 232 1.6 12.9 0.00 0.00 0.00 44 1012.3
20260901201026 35 309 1.6 8.0 0.00 0.00 0.00 45 1012.5
20260901200526 35 60 3.2 12.9 0.00 0.00 0.00 44 1012.6
20260901200051 35 308 3.2 12.9 0.00 0.00 0.00 44 1012.6
20260901195525 35 306 3.2 11.3 0.00 0.00 0.00 44 1012.7
20260901195028 35 304 1.6 8.0 0.00 0.00 0.00 43 1012.7
20260901194554 35 0 0.0 9.7 0.00 0.00 0.00 45 1012.8
20260901194025 35 82 1.6 9.7 0.00 0.00 0.00 45 1012.8
20260901193524 34 61 1.6 6.4 0.00 0.00 0.00 45 1012.9
20260901193049 33 119 0.0 9.7 0.00 0.00 0.00 47 1013.0
20260901192525 33 0 0.0 14.5 0.00 0.00 0.00 47 1013.1
20260901192026 33 337 3.2 14.5 0.00 0.00 0.00 46 1013.1
20260901191608 33 301 4.8 14.5 0.00 0.00 0.00 46 1013.2
20260901191027 33 301 1.6 11.3 0.00 0.00 0.00 47 1013.2
20260901190531 33 0 1.6 11.3 0.00 0.00 0.00 48 1013.3
20260901190050 33 211 3.2 11.3 0.00 0.00 0.00 49 1013.4
20260901185527 33 302 1.6 8.0 0.00 0.00 0.00 48 1013.5
20260901185027 33 10 3.2 11.3 0.00 0.00 0.00 48 1013.5
20260901184608 33 55 1.6 12.9 0.00 0.00 0.00 48 1013.5
20260901184030 33 335 4.8 12.9 0.00 0.00 0.00 47 1013.6
20260901183529 34 322 1.6 8.0 0.00 0.00 0.00 46 1013.7
20260901183055 33 0 0.0 6.4 0.00 0.00 0.00 47 1013.7
20260901182530 33 0 1.6 6.4 0.00 0.00 0.00 48 1013.8
20260901182032 33 5 0.0 9.7 0.00 0.00 0.00 48 1013.9
20260901181558 33 139 3.2 9.7 0.00 0.00 0.00 49 1013.9
20260901181029 32 161 1.6 11.3 0.00 0.00 0.00 50 1014.0
20260901180525 32 259 0.0 11.3 0.00 0.00 0.00 49 1014.0
20260901180048 32 229 3.2 12.9 0.00 0.00 0.00 50 1014.1
20260901175524 32 227 3.2 12.9 0.00 0.00 0.00 50 1014.1
20260901175024 32 294 1.6 9.7 0.00 0.00 0.00 51 1014.1
20260901174555 32 0 1.6 12.9 0.00 0.00 0.00 52 1014.2
20260901174024 32 327 4.8 12.9 0.00 0.00 0.00 51 1014.1
20260901173529 32 294 1.6 12.9 0.00 0.00 0.00 50 1014.2
20260901173052 32 103 3.2 12.9 0.00 0.00 0.00 50 1014.2
20260901172525 32 182 1.6 9.7 0.00 0.00 0.00 50 1014.1
20260901172029 32 56 1.6 9.7 0.00 0.00 0.00 52 1014.2
20260901171549 31 270 1.6 9.7 0.00 0.00 0.00 52 1014.1
20260901171026 31 202 3.2 9.7 0.00 0.00 0.00 52 1014.1
20260901170524 31 184 1.6 11.3 0.00 0.00 0.00 53 1014.1
20260901170051 31 199 3.2 11.3 0.00 0.00 0.00 53 1014.1
20260901165528 31 192 3.2 9.7 0.00 0.10 0.00 54 1014.0
20260901165024 31 176 1.6 9.7 0.00 0.10 0.00 54 1014.0
20260901164548 31 153 3.2 9.7 0.00 0.10 0.00 54 1014.0
20260901164023 31 0 1.6 8.0 0.00 0.10 0.00 55 1013.9
20260901163528 30 0 1.6 8.0 0.00 0.10 0.00 56 1013.9
20260901163054 30 180 3.2 8.0 0.00 0.10 0.00 56 1013.8
20260901162525 30 182 3.2 11.3 0.00 0.10 0.00 57 1013.8
20260901162024 30 210 3.2 11.3 0.00 0.10 0.00 58 1013.9
20260901161607 30 209 1.6 11.3 0.00 0.10 0.00 59 1013.8
20260901161034 29 193 3.2 12.9 0.00 0.10 0.00 59 1013.8
20260901160528 29 204 4.8 14.5 0.00 0.10 0.00 60 1013.7
20260901160106 29 161 4.8 14.5 0.00 0.10 0.00 61 1013.8
20260901155524 28 197 3.2 14.5 0.00 0.36 0.00 61 1013.7
20260901155024 28 162 3.2 14.5 0.00 0.36 0.00 61 1013.6
20260901154548 28 153 3.2 11.3 0.00 0.36 0.00 62 1013.7
20260901154026 28 168 1.6 11.3 0.00 0.36 0.00 63 1013.5
20260901153531 28 150 3.2 11.3 0.00 0.36 0.00 63 1013.5
20260901153057 27 96 1.6 12.9 0.00 0.36 0.00 65 1013.5
20260901152525 27 119 4.8 14.5 0.00 0.36 0.00 65 1013.5
20260901152028 27 151 4.8 14.5 0.00 0.36 0.00 65 1013.5
20260901151545 27 139 4.8 14.5 0.00 0.36 0.00 65 1013.5
20260901151024 27 97 4.8 14.5 0.00 0.36 0.00 67 1013.6
20260901150531 27 98 3.2 14.5 0.00 0.36 0.00 67 1013.6
20260901150053 27 169 3.2 14.5 0.00 0.36 0.00 67 1013.5
20260901145526 27 131 3.2 11.3 0.00 0.41 0.00 67 1013.5
20260901145028 27 127 0.0 6.4 0.00 0.41 0.00 68 1013.5
20260901144549 26 105 1.6 6.4 0.00 0.41 0.00 69 1013.4
20260901144025 26 113 0.0 4.8 0.00 0.41 0.00 70 1013.3
20260901143527 26 66 0.0 6.4 0.00 0.41 0.00 71 1013.3
20260901143106 26 145 1.6 6.4 0.00 0.41 0.00 71 1013.3
20260901142525 26 0 1.6 6.4 0.00 0.41 0.00 72 1013.2
20260901142027 25 57 1.6 6.4 0.00 0.41 0.00 72 1013.3
20260901141548 25 0 0.0 4.8 0.00 0.41 0.00 73 1013.3
20260901141030 25 151 0.0 3.2 0.00 0.41 0.00 73 1013.2
20260901140525 25 0 0.0 4.8 0.00 0.41 0.00 74 1013.2
20260901135527 24 0 0.0 9.7 0.00 0.41 0.00 76 1013.2
20260901135029 24 0 1.6 9.7 0.00 0.41 0.00 76 1013.1
20260901134554 24 113 1.6 9.7 0.00 0.41 0.00 77 1013.1
20260901134029 23 102 0.0 6.4 0.00 0.41 0.00 78 1013.0
20260901133525 23 79 1.6 6.4 0.00 0.41 0.00 79 1013.0
20260901133048 23 0 0.0 3.2 0.00 0.41 0.00 79 1012.9
20260901132525 23 0 0.0 0.0 0.00 0.41 0.00 80 1012.9
20260901132027 23 0 0.0 3.2 0.00 0.41 0.00 80 1012.9
20260901131552 23 0 0.0 3.2 0.00 0.41 0.00 80 1012.8
20260901131025 23 0 0.0 3.2 0.00 0.41 0.00 80 1012.7
20260901130529 23 0 0.0 1.6 0.00 0.41 0.00 80 1012.7
20260901130052 23 0 0.0 0.0 0.00 0.41 0.00 80 1012.7
20260901125524 23 0 0.0 0.0 0.00 0.41 0.00 80 1012.8
20260901125027 23 0 0.0 0.0 0.00 0.41 0.00 80 1012.8
20260901124549 23 0 0.0 0.0 0.00 0.41 0.00 80 1012.8
20260901124023 23 0 0.0 0.0 0.00 0.41 0.00 80 1012.7
20260901123525 23 0 0.0 0.0 0.00 0.41 0.00 80 1012.7
20260901123054 23 0 0.0 1.6 0.00 0.41 0.00 80 1012.8
20260901122526 23 0 0.0 4.8 0.00 0.41 0.00 80 1012.7
20260901122023 23 0 0.0 4.8 0.00 0.41 0.00 80 1012.6
20260901121547 23 150 0.0 8.0 0.00 0.41 0.00 80 1012.5
20260901121028 23 150 1.6 8.0 0.00 0.41 0.00 80 1012.6
20260901120523 23 0 0.0 1.6 0.00 0.41 0.00 80 1012.5
20260901120059 23 0 0.0 1.6 0.00 0.41 0.00 79 1012.4
20260901115527 23 0 0.0 4.8 0.00 0.41 0.00 79 1012.4
20260901115026 23 0 0.0 4.8 0.00 0.41 0.00 79 1012.4
20260901114550 23 150 0.0 4.8 0.00 0.41 0.00 79 1012.3
20260901114028 23 0 0.0 3.2 0.00 0.41 0.00 79 1012.3
20260901113525 23 0 0.0 8.0 0.00 0.41 0.00 79 1012.2
20260901113050 23 0 1.6 8.0 0.00 0.41 0.00 79 1012.3
20260901112525 23 0 1.6 8.0 0.00 0.41 0.00 79 1012.1
20260901112025 23 135 3.2 6.4 0.00 0.41 0.00 79 1012.2
20260901111555 23 146 0.0 4.8 0.00 0.41 0.00 80 1012.1
20260901111029 23 147 0.0 4.8 0.00 0.41 0.00 80 1012.0
20260901110525 23 147 1.6 3.2 0.00 0.41 0.00 80 1012.2
20260901110052 23 0 0.0 3.2 0.00 0.41 0.00 80 1012.1
20260901105525 23 137 0.0 3.2 0.00 0.41 0.00 80 1012.1
20260901105028 23 137 0.0 3.2 0.00 0.41 0.00 80 1012.1
20260901104550 23 0 0.0 3.2 0.00 0.41 0.00 80 1012.1
20260901104024 23 0 0.0 3.2 0.00 0.41 0.00 80 1012.2
20260901103523 23 0 0.0 3.2 0.00 0.41 0.00 80 1012.2
20260901103055 23 0 0.0 1.6 0.00 0.41 0.00 80 1012.3
20260901102523 23 0 0.0 1.6 0.00 0.41 0.00 80 1012.3
20260901102024 23 0 0.0 3.2 0.00 0.41 0.00 80 1012.3
20260901101545 23 0 0.0 3.2 0.00 0.41 0.00 80 1012.3
20260901101024 23 0 0.0 4.8 0.00 0.41 0.00 79 1012.3
20260901100525 23 137 1.6 4.8 0.00 0.41 0.00 79 1012.3
20260901100054 23 137 0.0 4.8 0.00 0.41 0.00 79 1012.2
20260901095525 23 0 0.0 0.0 0.00 0.41 0.00 79 1012.2
20260901095024 23 0 0.0 0.0 0.00 0.41 0.00 79 1012.3
20260901094547 23 0 0.0 0.0 0.00 0.41 0.00 78 1012.2
20260901094024 23 0 0.0 0.0 0.00 0.41 0.00 78 1012.3
20260901093525 23 0 0.0 0.0 0.00 0.41 0.00 78 1012.4
20260901093051 23 0 0.0 0.0 0.00 0.41 0.00 78 1012.5
20260901092533 23 0 0.0 0.0 0.00 0.41 0.00 78 1012.4
20260901092029 23 0 0.0 0.0 0.00 0.41 0.00 78 1012.5
20260901091548 24 0 0.0 0.0 0.00 0.41 0.00 78 1012.4
20260901091024 23 0 0.0 4.8 0.00 0.41 0.00 78 1012.4
20260901090524 24 0 0.0 4.8 0.00 0.41 0.00 77 1012.4
20260901090048 24 117 0.0 4.8 0.00 0.41 0.00 77 1012.5
20260901085523 24 0 0.0 1.6 0.00 0.41 0.00 77 1012.5
20260901085023 24 0 0.0 1.6 0.00 0.41 0.00 77 1012.6
20260901084555 24 0 0.0 1.6 0.00 0.41 0.00 77 1012.5
20260901084027 24 0 0.0 1.6 0.00 0.41 0.00 77 1012.6
20260901083526 24 0 0.0 1.6 0.00 0.41 0.00 77 1012.6
20260901083050 24 0 0.0 3.2 0.00 0.41 0.00 77 1012.6
20260901082526 24 0 0.0 4.8 0.00 0.41 0.00 76 1012.6
20260901082028 24 0 0.0 4.8 0.00 0.41 0.00 76 1012.6
20260901081550 24 0 1.6 4.8 0.00 0.41 0.00 76 1012.5
20260901081025 24 0 0.0 4.8 0.00 0.41 0.00 76 1012.5
20260901080524 24 111 1.6 4.8 0.00 0.41 0.00 75 1012.5
20260901080053 24 153 0.0 4.8 0.00 0.41 0.00 75 1012.5
20260901075524 24 153 1.6 4.8 0.00 0.69 0.00 75 1012.6
20260901075025 24 153 0.0 6.4 0.00 0.69 0.00 75 1012.5
20260901074549 24 149 0.0 6.4 0.00 0.69 0.00 74 1012.6
20260901074023 25 163 1.6 8.0 0.00 0.69 0.00 74 1012.5
20260901073524 25 148 1.6 8.0 0.00 0.69 0.00 73 1012.5
20260901073046 25 0 1.6 8.0 0.00 0.69 0.00 73 1012.5
20260901072524 25 0 1.6 8.0 0.00 0.69 0.00 72 1012.5
20260901072027 25 161 3.2 9.7 0.00 0.69 0.00 72 1012.5
20260901071553 25 150 1.6 9.7 0.00 0.69 0.00 72 1012.4
20260901071027 25 142 3.2 9.7 0.00 0.69 0.00 71 1012.4
20260901070527 25 161 4.8 11.3 0.00 0.69 0.00 71 1012.3
20260901070051 25 142 4.8 11.3 0.00 0.69 0.00 71 1012.3
20260901065525 25 147 4.8 11.3 0.00 0.69 0.69 70 1012.3
20260901065026 25 193 3.2 8.0 0.00 0.69 0.69 70 1012.3
20260901064547 25 146 3.2 9.7 0.00 0.69 0.69 70 1012.2
20260901064028 25 142 3.2 9.7 0.00 0.69 0.69 70 1012.2
20260901063525 25 154 3.2 8.0 0.00 0.69 0.69 70 1012.2
20260901063104 25 154 1.6 4.8 0.00 0.69 0.69 70 1012.3
20260901062529 25 154 1.6 6.4 0.00 0.69 0.69 70 1012.2
20260901062027 25 154 1.6 12.9 0.00 0.69 0.69 71 1012.1
20260901061602 25 146 3.2 12.9 0.00 0.69 0.69 71 1012.0
20260901061025 25 138 3.2 11.3 0.00 0.69 0.69 72 1012.1
20260901060523 25 112 1.6 9.7 0.00 0.69 0.69 72 1012.0
20260901060056 25 149 3.2 8.0 0.00 0.69 0.69 71 1012.0
20260901055524 26 150 3.2 8.0 0.00 0.69 0.69 71 1012.0
20260901055028 26 76 1.6 11.3 0.00 0.69 0.69 70 1012.0
20260901054551 26 136 3.2 11.3 0.00 0.69 0.69 70 1011.9
20260901054025 26 155 3.2 9.7 0.00 0.69 0.69 69 1012.0
20260901053530 26 159 4.8 11.3 0.00 0.69 0.69 69 1012.0
20260901053105 26 132 3.2 11.3 0.00 0.69 0.69 69 1011.9
20260901052523 26 133 3.2 11.3 0.00 0.69 0.69 68 1012.0
20260901052024 26 138 3.2 11.3 0.00 0.69 0.69 68 1012.0
20260901051550 26 148 1.6 12.9 0.00 0.69 0.69 67 1012.0
20260901051024 26 148 3.2 14.5 0.00 0.69 0.69 66 1012.0
20260901050527 26 160 4.8 14.5 0.00 0.69 0.69 65 1012.0
20260901050052 26 159 3.2 9.7 0.00 0.69 0.69 64 1012.0
20260901045530 26 149 3.2 8.0 0.00 0.69 0.69 63 1012.1
20260901045028 27 147 1.6 6.4 0.00 0.69 0.69 63 1012.0
20260901044600 27 147 1.6 6.4 0.00 0.69 0.69 62 1012.0
20260901044027 27 0 1.6 6.4 0.00 0.69 0.69 62 1011.9
20260901043523 27 159 1.6 12.9 0.00 0.69 0.69 61 1011.9
20260901043052 27 142 3.2 14.5 0.00 0.69 0.69 60 1012.0